SCP
0 0 0 0 0 0 0 0 0 0 0 0 0 0 0 0 0 0 0 0 0 0 0 0 0 0 0 0 0 0 0 0 0 0 0 0 0 0 0 0 0 0 0 0 0 0 0 0 0
0 0 0 0 0 0 0 0 0 0 0 0 0 0 0 0 0 0 0 0 0 0 0 0 0 0 0 0 0 0 0 0 0 0 0 0 0 0 0 0 0 0 0 0 0 0 0 0 0
0 0 0 0 0 0 0 0 0 0 0 0 0 0 0 0 0 0 0 0 0 0 0 0 0 0 0 0 0 0 0 0 0 0 0 0 0 0 0 0 0 0 0 0 0 0 0 0 0
0 0 0 0 0 0 0 0 0 0 0 0 0 0 0 0 0 0 0 0 0 0 0 0 0 0 0 0 0 0 0 0 0 0 0 0 0 0 0 0 0 0 0 0 0 0 0 0 0
0 0 0 0 0 0 0 0 0 0 0 0 0 0 0 0 0 0 0 0 0 0 0 0 0 0 0 0 0 0 0 0 0 0 0 0 0 0 0 0 0 0 0 0 0 0 0 0 0
0 0 0 0 0 0 0 0 0 0 0 0 0 0 0 0 0 0 0 0 0 0 0 0 0 0 0 0 0 0 0 0 0 0 0 0 0 0 0 0 0 0 0 0 0 0 0 0 0
0 0 0 0 0 0 0 0 0 0 0 0 0 0 0 0 0 0 0 0 0 0 0 0 0 0 0 0 0 0 0 0 0 0 0 0 0 0 0 0 0 0 0 0 0 0 0 0 0
0 0 0 0 0 0 0 0 0 0 0 0 0 0 0 0 0 0 0 0 0 0 0 0 0 0 0 0 0 0 0 0 0 0 0 0 0 0 0 0 0 0 0 0 0 0 0 0 0
0 0 0 0 0 0 0 0 0 0 0 0 0 0 0 0 0 0 0 0 0 0 0 0 0 0 0 0 0 0 0 0 0 0 0 0 0 0 0 0 0 0 0 0 0 0 0 0 0
0 0 0 0 0 0 0 0 0 0 0 0 0 0 0 0 0 0 0 0 0 0 0 0 0 0 0 0 0 0 0 0 0 0 0 0 0 0 0 0 0 0 0 0 0 0 0 0 0
0 0 0 0 0 0 0 0 0 0 0 0 0 0 0 0 0 0 0 0 0 0 0 0 0 0 0 0 0 0 0 0 0 0 0 0 0 0 0 0 0 0 0 0 0 0 0 0 0
0 0 0 0 0 0 0 0 0 0 0 0 0 0 0 0 0 0 0 0 0 0 0 0 0 0 0 0 0 0 0 0 0 0 0 0 0 0 0 0 0 0 0 0 0 0 0 0 0
0 0 0 0 0 0 0 0 0 0 0 0 0 0 0 0 0 0 0 0 0 0 0 0 0 0 0 0 0 0 0 0 0 0 0 0 0 0 0 0 0 0 0 0 0 0 0 0 0
0 0 0 0 0 0 0 0 0 0 0 0 0 0 0 0 0 0 0 0 0 0 0 0 0 0 0 0 0 0 0 0 0 0 0 0 0 0 0 0 0 0 0 0 0 0 0 0 0
0 0 0 0 0 0 0 0 0 0 0 0 0 0 0 0 0 0 0 0 0 0 0 0 0 0 0 0 0 0 0 0 0 0 0 0 0 0 0 0 0 0 0 0 0 0 0 0 0
0 0 0 0 0 0 0 0 0 0 0 0 0 0 0 0 0 0 0 0 0 0 0 0 0 0 0 0 0 0 0 0 0 0 0 0 0 0 0 0 0 0 0 0 0 0 0 0 0
0 0 0 0 0 0 0 0 0 0 0 0 0 0 0 0 0 0 0 0 0 0 0 0 0 0 0 0 0 0 0 0 0 0 0 0 0 0 0 0 0 0 0 0 0 0 0 0 0
0 0 0 0 0 0 0 0 0 0 0 0 0 0 0 0 0 0 0 0 0 0 0 0 0 0 0 0 0 0 0 0 0 0 0 0 0 0 0 0 0 0 0 0 0 0 0 0 0
0 0 0 0 0 0 0 0 0 0 0 0 0 0 0 0 0 0 0 0 0 0 0 0 0 0 0 0 0 0 0 0 0 0 0 0 0 0 0 0 0 0 0 0 0 0 0 0 0
0 0 0 0 0 0 0 0 0 0 0 0 0 0 0 0 0 0 0 0 0 0 0 0 0 0 0 0 0 0 0 0 0 0 0 0 0 0 0 0 0 0 0 0 0 0 0 0 0
0 0 0 0 0 0 0 0 0 0 0 0 0 0 0 0 0 0 0 0 0 0 0 0 0 0 0 0 0 0 0 0 0 0 0 0 0 0 0 0 0 0 0 0 0 0 0 0 0
0 0 0 0 0 0 0 0 0 0 0 0 0 0 0 0 0 0 0 0 0 0 0 0 0 0 0 0 0 0 0 0 0 0 0 0 0 0 0 0 0 0 0 0 0 0 0 0 0
0 0 0 0 0 0 0 0 0 0 0 0 0 0 0 0 0 0 0 0 0 0 0 0 0 0 0 0 0 0 0 0 0 0 0 0 0 0 0 0 0 0 0 0 0 0 0 0 0
0 0 0 0 0 0 0 0 0 0 0 0 0 0 0 0 0 0 0 0 0 0 0 0 0 0 0 0 0 0 0 0 0 0 0 0 0 0 0 0 0 0 0 0 0 0 0 0 0
0 0 0 0 0 0 0 0 0 0 0 0 0 0 0 0 0 0 0 0 0 0 0 0 0 0 0 0 0 0 0 0 0 0 0 0 0 0 0 0 0 0 0 0 0 0 0 0 0
0 0 0 0 0 0 0 0 0 0 0 0 0 0 0 0 0 0 0 0 0 0 0 0 0 0 0 0 0 0 0 0 0 0 0 0 0 0 0 0 0 0 0 0 0 0 0 0 0
0 0 0 0 0 0 0 0 0 0 0 0 0 0 0 0 0 0 0 0 0 0 0 0 0 0 0 0 0 0 0 0 0 0 0 0 0 0 0 0 0 0 0 0 0 0 0 0 0
0 0 0 0 0 0 0 0 0 0 0 0 0 0 0 0 0 0 0 0 0 0 0 0 0 0 0 0 0 0 0 0 0 0 0 0 0 0 0 0 0 0 0 0 0 0 0 0 0
0 0 0 0 0 0 0 0 0 0 0 0 0 0 0 0 0 0 0 0 0 0 0 0 0 0 0 0 0 0 0 0 0 0 0 0 0 0 0 0 0 0 0 0 0 0 0 0 0
0 0 0 0 0 0 0 0 0 0 0 0 0 0 0 0 0 0 0 0 0 0 0 0 0 0 0 0 0 0 0 0 0 0 0 0 0 0 0 0 0 0 0 0 0 0 0 0 0
Wind_Speed
10 11 8 3 3 5 7 4 2 4 3 5 5 2 5 8 6 7 5 8 14 15 15 15 17 16 15 15 15 14 14 13 13 12 12 12 12 12 13 13 13 13 14 14 14 14 14 14 14
10 8 4 3 4 6 5 4 4 5 6 7 4 0 4 7 9 9 5 10 15 16 14 14 17 16 15 15 15 15 14 13 13 12 12 12 12 12 12 12 12 13 13 13 13 13 13 13 13
11 8 4 4 5 6 2 5 6 7 6 5 3 1 4 7 10 8 8 11 13 14 13 15 17 16 16 16 15 15 14 13 13 12 12 11 11 11 11 11 11 11 11 11 12 12 12 12 12
6 4 5 6 8 4 1 4 7 7 5 3 4 5 5 6 6 9 11 11 13 13 13 15 17 16 16 16 15 14 14 13 13 12 12 11 11 10 10 10 10 10 10 10 10 10 10 10 10
3 4 6 7 8 3 1 5 7 6 6 5 4 5 7 5 12 13 10 11 12 13 14 14 17 17 16 16 15 15 14 13 13 12 11 11 10 9 9 9 8 8 8 8 8 9 9 9 9
4 4 6 7 7 3 2 4 3 5 6 6 4 4 7 8 11 10 9 10 11 13 15 14 17 16 16 16 15 15 14 13 13 12 11 10 9 9 8 7 7 7 7 7 7 7 7 7 7
5 5 8 8 4 4 4 4 5 5 5 6 3 3 8 8 10 10 9 9 10 13 14 12 11 12 15 15 15 14 14 13 12 12 11 10 9 8 7 6 6 5 4 5 5 5 5 5 5
4 5 8 7 4 4 4 3 2 2 2 3 2 1 9 10 10 9 8 8 10 11 13 12 11 10 9 10 13 14 13 13 12 12 10 9 8 7 7 6 5 4 3 2 3 3 3 2 2
4 5 6 5 3 2 6 4 3 1 1 2 3 6 9 12 11 9 7 6 8 10 11 12 12 11 10 9 12 11 12 12 11 10 10 8 5 5 5 6 5 3 2 0 0 2 3 4 5
4 5 6 4 3 2 4 3 3 3 4 4 5 7 9 9 10 10 10 10 10 10 10 10 11 11 10 9 9 6 7 7 7 6 7 5 3 3 5 7 6 5 4 3 4 5 6 6 2
6 7 7 5 3 4 2 2 2 4 6 6 7 12 11 9 9 10 11 11 11 10 9 10 10 10 10 7 7 5 4 5 5 7 7 4 3 3 3 3 4 4 5 4 4 5 3 2 1
9 8 8 5 1 1 3 3 4 6 6 3 0 9 13 12 12 11 11 11 10 11 10 9 10 9 9 8 6 6 5 5 4 5 6 4 3 2 2 2 3 2 2 2 1 2 2 2 2
11 10 8 5 2 2 5 6 6 8 7 5 1 4 9 11 11 11 10 10 10 11 11 10 10 10 9 7 6 6 5 6 5 5 5 5 3 3 2 2 2 1 1 1 1 2 2 2 3
7 8 9 7 6 5 6 8 8 9 7 6 5 6 8 9 10 10 10 10 11 12 12 11 11 10 9 7 6 6 5 5 5 5 5 5 4 3 2 2 2 1 1 0 0 2 2 2 2
6 7 8 8 8 7 5 10 13 12 8 8 8 8 9 9 9 9 10 10 10 12 13 11 11 11 11 9 8 6 5 5 5 5 5 5 4 3 3 2 1 1 1 0 1 2 2 2 2
6 8 9 9 10 6 5 10 8 6 7 8 8 8 8 10 10 9 9 9 9 11 13 13 10 11 11 9 8 5 6 6 5 5 5 5 4 4 2 2 1 2 1 1 1 1 2 2 2
9 10 10 9 9 8 8 8 7 5 6 8 8 9 9 9 10 10 10 10 10 11 12 13 12 11 11 10 8 6 6 6 5 5 4 5 4 4 3 2 2 2 2 1 0 1 1 2 3
9 11 10 9 8 9 9 9 9 7 8 9 9 9 9 9 11 11 10 10 10 9 11 13 12 11 10 8 7 5 5 5 5 4 5 6 4 4 4 3 3 3 2 1 0 1 1 1 2
10 9 8 6 6 7 9 11 11 10 9 10 9 9 9 9 9 11 11 10 10 9 10 12 13 11 9 8 8 7 6 5 4 4 6 6 5 5 4 3 3 3 2 1 1 2 2 2 2
14 13 11 7 3 4 7 11 11 12 12 11 10 9 9 8 7 8 10 10 10 10 10 11 12 12 11 8 7 6 6 5 4 4 5 6 5 5 4 4 3 3 2 2 2 2 1 2 2
15 13 11 8 5 5 7 11 12 11 12 11 10 9 8 8 8 8 10 10 10 10 11 11 12 12 11 10 7 6 5 4 3 4 4 5 6 6 5 4 4 4 3 2 2 2 2 1 1
14 11 9 8 6 6 5 8 8 8 8 9 9 8 7 7 7 8 10 11 11 10 9 10 11 11 11 11 10 11 8 6 6 5 5 5 6 6 5 5 5 4 3 3 2 3 2 2 0
9 5 7 7 7 9 9 9 8 8 9 8 7 7 6 5 5 7 9 11 10 9 9 9 10 11 11 11 11 11 8 6 6 7 7 6 5 6 6 5 5 4 3 4 3 2 1 1 1
7 4 3 5 5 10 11 11 8 7 7 5 5 5 5 5 5 5 7 9 8 8 8 9 10 10 10 11 11 11 10 9 10 9 8 6 5 4 6 6 5 4 4 4 3 3 2 1 1
9 7 5 6 7 9 9 10 8 6 4 3 3 3 4 5 5 6 8 9 9 10 9 9 10 11 11 11 11 11 10 11 11 10 9 8 5 4 6 5 5 4 4 4 4 3 2 2 2
14 13 9 7 6 5 7 9 6 4 4 4 3 3 3 4 5 7 8 9 10 10 10 10 11 10 11 11 10 10 9 8 7 8 8 8 6 6 7 7 6 5 5 5 4 3 3 2 3
16 16 12 6 6 5 6 6 6 5 5 5 4 4 4 4 5 7 7 8 10 11 11 11 11 10 11 11 10 9 10 9 8 8 7 6 6 6 8 7 6 6 6 5 4 3 3 3 3
11 11 7 8 6 7 8 9 7 8 8 6 5 4 4 4 5 7 7 8 9 9 9 9 10 10 10 10 9 8 9 9 9 8 9 8 8 8 8 7 7 6 6 5 4 3 3 3 3
14 15 9 8 7 5 5 5 5 8 8 7 6 5 5 6 6 6 6 7 8 9 9 10 10 9 9 10 9 8 8 8 9 8 8 8 8 9 9 8 7 6 6 5 4 4 4 5 4
16 17 14 11 9 8 5 5 1 6 7 7 5 5 5 6 6 7 7 7 8 9 9 10 9 10 10 9 9 8 8 8 8 8 8 9 9 8 8 7 7 6 6 5 5 5 5 5 5
Wind_Direction
276 256 244 239 234 233 237 230 132 107 97 72 62 18 43 46 51 111 164 145 126 133 139 148 146 143 138 132 126 123 118 113 107 102 97 92 88 83 79 76 73 70 69 67 66 65 63 62 60
280 259 240 238 238 233 221 189 140 123 98 88 83 107 91 83 92 113 141 127 132 135 141 147 148 145 142 137 133 129 124 118 113 107 102 96 92 87 83 80 77 74 72 70 68 66 64 62 60
269 261 238 227 238 242 195 140 128 105 108 129 142 58 64 97 114 128 136 133 134 135 141 143 149 146 143 139 135 133 130 124 119 113 107 100 95 90 86 83 80 78 75 72 70 67 64 62 60
252 232 243 246 246 241 211 125 113 117 132 163 157 126 85 66 94 117 133 140 137 136 134 143 150 149 147 144 141 139 136 131 125 119 113 107 101 95 91 87 83 80 76 72 69 67 63 59 56
247 242 234 245 251 250 145 113 124 150 161 182 208 125 101 79 100 120 142 144 143 139 135 147 152 151 149 146 144 143 140 137 131 126 120 115 109 103 98 92 87 81 75 70 67 64 60 54 49
241 245 239 231 225 212 153 118 162 184 171 167 191 140 115 131 125 140 146 147 145 137 138 147 155 155 154 151 148 146 145 144 139 134 128 124 119 114 107 100 92 84 76 70 63 57 53 48 43
254 260 261 254 216 189 163 147 192 208 182 164 177 148 126 146 135 142 146 151 142 138 140 148 156 158 157 155 154 152 152 151 148 143 137 135 132 127 120 113 104 94 81 69 62 53 47 41 34
273 276 261 259 232 191 142 151 212 242 188 117 134 149 139 143 139 144 149 148 141 141 145 153 159 160 157 157 158 157 158 158 153 149 145 145 147 143 141 133 126 115 98 76 56 39 15 349 327
271 261 258 249 244 168 132 170 191 347 295 123 96 61 114 131 143 144 146 145 146 152 153 159 163 163 162 161 162 160 161 160 155 152 155 158 167 165 160 144 149 149 149 144 354 305 293 285 271
222 250 263 303 350 30 129 185 179 197 230 185 130 106 118 140 154 159 165 169 166 168 166 162 164 163 163 163 158 163 162 160 166 161 168 182 180 155 147 152 174 189 209 232 246 260 276 272 250
221 242 265 290 350 2 9 245 221 221 235 219 178 155 153 163 172 178 181 180 176 172 170 164 162 161 160 156 161 164 162 165 178 167 172 173 153 148 155 164 185 209 219 230 232 249 250 264 266
243 247 253 268 31 335 281 268 256 238 247 275 155 150 159 174 184 190 191 186 174 172 172 167 160 160 161 159 163 160 158 165 168 169 171 163 155 168 172 176 175 199 199 196 232 257 265 292 294
237 250 255 251 201 240 273 269 265 258 257 269 282 149 172 185 192 195 195 186 171 172 171 170 165 164 163 161 164 166 163 164 166 164 171 160 157 175 177 186 178 196 176 173 260 293 327 333 346
239 241 246 240 225 222 241 258 254 249 245 242 228 205 198 204 201 195 193 190 177 173 171 170 172 168 164 165 165 166 163 160 160 159 169 167 162 168 173 190 180 180 151 147 323 325 349 336 337
257 260 256 236 222 219 233 253 243 243 240 237 232 219 210 212 206 201 194 190 179 171 170 172 175 172 168 170 171 166 161 159 158 160 168 169 168 168 165 171 157 150 128 52 10 341 341 318 324
233 241 246 235 215 190 203 253 256 211 210 229 237 235 220 211 206 200 191 183 177 168 169 173 174 175 173 171 170 165 166 163 161 159 164 170 165 159 161 158 152 122 93 64 26 337 346 338 351
224 231 234 231 200 184 205 250 262 205 205 225 232 235 227 210 202 198 189 178 178 173 169 169 171 177 176 171 167 166 165 162 160 155 156 162 162 165 155 148 138 119 107 90 11 31 37 357 351
214 222 232 229 189 196 216 244 260 258 240 238 237 235 230 217 203 192 185 175 175 174 167 166 169 176 173 168 164 162 162 162 156 153 155 157 160 159 147 141 133 117 113 96 61 47 34 17 358
251 253 247 240 188 194 226 248 255 255 252 246 241 238 236 230 206 183 176 167 164 167 167 166 168 175 172 171 169 167 167 160 154 153 155 155 153 149 141 135 127 119 122 126 82 63 25 9 12
239 254 264 272 234 214 250 260 261 252 248 243 240 240 240 240 214 181 169 163 166 170 171 168 170 175 175 173 168 164 156 153 146 143 147 149 148 144 139 137 134 126 113 94 82 77 41 9 38
227 233 245 258 273 248 264 268 255 251 240 238 235 233 235 232 214 183 169 168 168 174 175 175 172 174 174 165 155 145 128 120 131 150 152 154 147 141 139 140 131 128 123 122 109 98 91 46 4
229 225 238 255 267 266 252 278 263 253 243 233 224 221 226 230 212 182 173 171 173 175 171 170 170 171 172 166 164 161 160 162 165 157 153 153 146 143 142 139 132 130 124 125 122 105 106 106 40
223 211 227 240 251 264 262 269 262 237 237 226 210 203 206 212 202 180 174 170 168 164 165 168 167 169 171 170 167 166 165 162 149 148 151 152 147 145 143 140 135 134 132 131 123 117 115 118 141
196 192 239 250 249 251 235 240 265 227 223 200 181 177 183 188 181 170 161 153 155 155 159 164 166 171 172 173 173 174 170 163 153 154 159 156 149 147 149 143 142 144 139 135 134 136 146 160 172
186 172 198 210 217 237 209 221 242 219 188 169 174 175 170 169 169 168 160 158 158 159 164 167 168 172 174 178 179 178 175 165 160 161 162 158 155 157 162 151 154 152 145 143 144 154 175 187 194
194 192 196 199 214 222 196 221 237 202 162 146 161 174 166 170 169 168 165 164 162 164 169 174 175 175 176 180 180 177 171 161 161 163 160 162 161 161 158 157 158 154 151 153 158 170 191 193 201
192 206 224 265 289 287 241 226 217 197 173 177 184 179 174 177 169 166 165 165 164 167 175 179 178 176 177 178 177 174 167 160 161 160 155 155 152 152 153 155 158 159 161 164 167 183 201 198 208
205 190 191 212 220 241 250 243 232 202 192 181 178 170 163 160 162 164 168 168 165 167 173 179 180 177 174 175 176 172 165 162 157 155 156 153 150 147 152 159 163 165 168 172 178 189 203 206 218
198 200 191 195 220 218 234 239 213 182 164 157 153 147 153 163 168 169 168 166 163 165 173 180 178 174 172 174 172 165 161 156 153 156 156 152 150 153 159 165 167 171 176 180 186 198 203 214 228
205 206 197 196 204 211 239 263 115 121 131 138 147 153 157 159 162 164 164 164 165 169 175 179 178 175 175 173 166 163 157 153 156 157 155 152 155 158 162 165 169 176 182 186 193 207 211 218 230